Regional Weather Roundup
Issued by NWS Grand Forks, ND

Home | Current Version | Previous Version | Text Only | Print | Product List | Glossary Off
Versions: 1 2 3 4 5 6 7 8 9 10 11 12 13 14 15 16 17 18 19 20 21 22 23 24 25 26 27 28 29 30 31 32 33 34 35 36 37 38 39 40 41 42 43 44 45 46 47 48 49 50

000
ASUS43 KFGF 241910
RWRFGF
PRAIRIE TO PINES  WEATHER ROUNDUP
NATIONAL WEATHER SERVICE EASTERN NORTH DAKOTA/GRAND FORKS ND
200 PM CDT THU MAY 24 2018

 **SATELLITE DATA USED TO AUGMENT SKY COVER AT AUTOMATED STATIONS**
 *****  WEATHER ACROSS EASTERN NORTH DAKOTA  *****

CITY           SKY/WX    TMP DP  RH WIND       PRES   REMARKS
GRAND FORKS    PTSUNNY   85  60  42 S15G24    29.76F
GRAND FRKS AFB FAIR      85  60  42 S14       29.75F
GRAND FRKS NWS   N/A     85  61  44 SW15      29.74F
DEVILS LAKE    FAIR      83  57  41 SE13      29.76F
FARGO          FAIR      84  58  40 S14G21    29.82F
WAHPETON ARPT  FAIR      86  52  30 SW12      29.83F
$$

 ***** WEATHER ACROSS CENTRAL AND WESTERN NORTH DAKOTA  *****

CITY           SKY/WX    TMP DP  RH WIND       PRES   REMARKS
BISMARCK       FAIR      83  55  38 SW10      29.78S
MINOT          FAIR      86  49  27 S8        29.71F
JAMESTOWN      FAIR      84  58  40 S15G22    29.78F
MINOT AFB      FAIR      86  50  28 SW15      29.69F
GARRISON         N/A     82  50  32 W17G26    29.75S
WILLISTON      LGT RAIN  69  56  62 SW9       29.77S
DICKINSON      FAIR      77  53  43 W18G28    29.81S
HETTINGER      PTSUNNY   77  53  43 W17G29    29.87S
$$

 *****  OTHER AIRPORT OBSERVATIONS IN OUR AREA  *****

CITY           SKY/WX    TMP DP  RH WIND       PRES   REMARKS
WALHALLA       FAIR      86  59  39 SW7G16    29.72F
GRAFTON AIRPOR FAIR      86  59  39 S15       29.75F
VALLEY CITY AR FAIR      84  57  39 S15G22    29.81F
CANDO          FAIR      82  59  44 S12G18    29.76F
CAVALIER APRT    N/A     88  57  35 SW8G16    29.72F
GWINNER          N/A     86  55  35 SW14G22   29.82F
SHEYENNE NWR     N/A     86  60  41 S9        29.95S
ROLLA          FAIR      82  55  39 S15G24    29.74F
 ***** THE ABOVE OBSERVATIONS ARE NON NWS ARE NOT QUALITY
       CONTROLLED AND MAY MIS-REPORT RAIN FOR SNOW...
$$

  *****  WEATHER ACROSS NORTHERN MINNESOTA  *****

CITY           SKY/WX    TMP DP  RH WIND       PRES   REMARKS
FLAG ISLAND    PTSUNNY   68  63  83 SE7       29.83F
WARROAD        FAIR      75  70  83 SE15      29.83F
ROSEAU         NOT AVBL
HALLOCK        FAIR      88  63  42 S13G20    29.73F
THF RVR FALLS  FAIR      82  63  52 SW16G22   29.82F
BAUDETTE       CLOUDY    78  66  66 S12G18    29.85F
WASKISH          N/A     79  64  61 S10G17    29.87S
CROOKSTON      FAIR      84  57  39 SW12      29.78F
STEPHEN NDAWN    N/A     88  57  35 S14         N/A
GREENBUSH NDAW   N/A     81  64  57 S10         N/A
$$
  *****  WEATHER ACROSS CENTRAL AND WEST MINNESOTA  *****

CITY           SKY/WX    TMP DP  RH WIND       PRES   REMARKS
FOSSTON        FAIR      81  54  39 S16G22    29.84F
BEMIDJI        FAIR      71  67  85 SE12      29.88F
PARK RAPIDS    FAIR      81  65  58 SW8       29.88F
ELBOW LAKE     FAIR      86  59  40 W16G22    29.87F
WADENA         FAIR      82  64  54 S17       29.88F
DETROIT LAKES  FAIR      81  59  47 S9        29.87F
MOORHEAD       FAIR      82  55  39 SW9       29.83F
FERGUS FALLS   FAIR      82  63  51 SW9       29.81F
MORRIS MN      FAIR      90  54  29 SW17      29.87S
STAPLES        FAIR      82  64  54 S16G22    29.89F
$$
  *****  WEATHER ELSEWHERE ACROSS MINNESOTA  *****

CITY           SKY/WX    TMP DP  RH WIND       PRES   REMARKS
DULUTH         FAIR      75  66  73 SE10      29.98F
INTRNTL FALLS  FAIR      80  64  58 SE13      29.88F
ELY            FAIR      70  66  88 S8        29.95F
CLOQUET        FAIR      72  63  73 SE6       29.97F
WHEATON        FAIR      86  54  32 SW13      29.87S
BRAINERD       PTSUNNY   83  65  54 S21G30    29.90F
HIBBING        FAIR      77  64  64 SE13G18   29.94F
ALEXANDRIA     FAIR      87  62  43 S18G26    29.91F
SAINT CLOUD    FAIR      89  60  37 S17G26    29.91F
MINNEAPOLIS    FAIR      90  60  36 S13G31    29.94F
$$

  *****  WEATHER ACROSS SOUTH DAKOTA  *****

CITY           SKY/WX    TMP DP  RH WIND       PRES   REMARKS
SIOUX FALLS    PTSUNNY   80  69  69 S17G28    29.91F
BROOKINGS      FAIR      85  63  47 SW14      29.92S
WATERTOWN      FAIR      84  60  44 SW16G26   29.90S
HURON          FAIR      84  62  47 S14G22    29.87F
SISSETON         N/A     86  61  42 SW15      29.85F
ABERDEEN       FAIR      88  60  38 S17G28    29.83F
MITCHELL       FAIR      84  69  60 SE10      29.88F
PIERRE         FAIR      83  62  49 W12       29.84F
MOBRIDGE       FAIR      83  61  47 W14       29.80F
RAPID CITY     FAIR      77  53  43 NE8       29.93S
$$

  *****  SOME WEATHER IN NEARBY STATES *****

CITY           SKY/WX    TMP DP  RH WIND       PRES   REMARKS
GLASGOW MT     FAIR      78  56  46 W12       29.78F
GREAT FALLS MT CLOUDY    74  45  35 W24G32    29.88R
CHEYENNE WY    LGT RAIN  73  39  29 SW10G22   30.14F
SCOTTSBLUFF NE FAIR      82  48  30 W13       30.02F
OMAHA NE       PTSUNNY   89  61  38 S16G24    29.97F
DES MOINES IA  CLOUDY    87  64  46 S13       30.02F
DAVENPORT IA   FAIR      87  60  40 S14       30.11F
CHICAGO IL     PTSUNNY   84  55  36 VRB6      30.11F
EAU CLAIRE WI  FAIR      87  65  47 S16G23    29.99F
LA CROSSE WI   FAIR      87  67  51 S13       30.03F HX  90
$$

  *****  SOME NATIONAL WEATHER *****

CITY           SKY/WX    TMP DP  RH WIND       PRES   REMARKS
LA GUARDIA NY  FAIR      82  37  20 NW3       30.10S
RALEIGH NC     PTSUNNY   84  66  54 E8        30.14F
ATLANTA GA     PTSUNNY   84  68  58 E5        30.09F
NEW ORLEANS LA PTSUNNY   82  70  66 S6        30.04F
OKLAHOMA CITY  FAIR      86  65  49 S15       30.05F
ALBUQUERQUE NM FAIR      81  26  13 NW6       30.20F
SALT LAKE CITY MOSUNNY   79  37  22 S6G17     30.08F
LOS ANGELES CA CLOUDY    62  55  77 VRB5      30.09F
BOISE ID       FAIR      76  53  44 W5        30.02F
SEATTLE WA     CLOUDY    60  51  72 SW5       30.09R
$$

*** WEATHER ACROSS MANITOBA...SASKATCHEWAN AND ONTARIO ***
                ***ONTARIO***

CITY           SKY/WX    TMP DP  RH WIND       PRES   REMARKS
GERALDTON      PTSUNNY   82  52  34 SW14G21   29.92F
THUNDER BAY    PTSUNNY   61  48  63 E14       29.95F
SIOUX LOOKOUT  PTSUNNY   79  63  57 S9G18     29.88F
TORONTO        MOSUNNY   79  55  44 SE9       30.10F
BIG TROUT LK     N/A     86  41  20 MISG      29.77F
PICKLE LAKE    PTSUNNY   86  48  26 S14G20    29.85F
DRYDEN         SUNNY     79  61  53 S15G23    29.87F
KENORA         PTSUNNY   73  64  73 SW12G22   29.86S THUNDER
$$
                *** MANITOBA***

CITY           SKY/WX    TMP DP  RH WIND       PRES   REMARKS
BRANDON        MOSUNNY   79  59  50 SE7       29.71F
DAUPHIN        MOSUNNY   68  64  88 S5        29.70F
ISLAND LAKE    MOSUNNY   84  50  30 N5        29.77F
PILOT MOUND      N/A     79  63  57 S12G18      N/A
THE PAS        SUNNY     84  54  34 SE17G24   29.69F
THOMPSON       MOSUNNY   90  43  19 VRB2      29.72F
WINNIPEG       PTSUNNY   82  64  54 S15G23    29.73F
LYNN LAKE        N/A     90  45  20 MISG      29.71F
CHURCHILL      PTSUNNY   36  34  93 N16       29.87R FOG
GILLAM         SUNNY     86  46  25 W8        29.70F
$$
                ***SASKATCHEWAN***

CITY           SKY/WX    TMP DP  RH WIND       PRES   REMARKS
ESTEVAN        PTSUNNY   77  61  57 SW9G20    29.72F
KINDERSLEY     MOSUNNY   81  46  30 SW17      29.69F
LLOYDMINSTER   CLOUDY    61  57  88 CALM      29.74F
PRINCE ALBERT  CLOUDY    73  57  56 SE14      29.72F
REGINA         LGT RAIN  68  59  73 W8        29.73S
YORKTON        MOSUNNY   75  64  69 VRB2      29.69F
N. BATTLEFORD  PTSUNNY   70  57  64 S6        29.72F
LA RONGE       PTSUNNY   75  54  46 SE10      29.72S
SASKATOON      CLOUDY    73  57  56 VRB8      29.72F
SWIFT CURRENT  MOSUNNY   79  48  34 W12       29.73F
$$
NOTE: THESE ARE AUTOMATED STATIONS WITH LIMITED QUALITY CONTROL
      "FAIR" INDICATES FEW OR NO CLOUDS BELOW 12,000 FEET WITH NO
      SIGNIFICANT WEATHER AND/OR OBSTRUCTIONS TO VISIBILITY.
      SKY/WX - SKY CONDITION AND SIGNIFICANT WEATHER.
      TMP - AIR TEMPERATURE.    DP   - DEWPOINT TEMPERATURE.
      RH  - RELATIVE HUMIDITY.  PRES - PRESSURE.
      HX  - HEAT INDEX.         WCI  - WIND CHILL INDEX.
$




USA.gov is the U.S. government's official web portal to all federal, state and local government web resources and services.